JST151 YBCS-YBSU

Flight info

Callsign JST151
Flight time N/A
Altitude 37000
Route AKROM Y177 RUROX/N0354F190 W727 SUSGI W534 SEBVA
Aircraft A321/M-SDE3FGHIRWY/LB1

Departure

Time 2026-04-27 08:47
Airport Cairns International Airport (YBCS)

Arrival

Time N/A
Airport Sunshine Coast Airport (YBSU)
Time Latitude Longitude Altitude Speed Heading
2026-04-27 08:13 -16.87781 145.75293 11 ft 0 kts 66°
2026-04-27 08:27 -16.87789 145.75276 11 ft 4 kts 60°
2026-04-27 08:27 -16.87804 145.75253 13 ft 4 kts 47°
2026-04-27 08:28 -16.87821 145.75236 12 ft 1 kts 35°
2026-04-27 08:28 -16.87822 145.75236 12 ft 0 kts 35°
2026-04-27 08:31 -16.87814 145.75237 11 ft 4 kts
2026-04-27 08:31 -16.87753 145.75178 12 ft 22 kts 317°
2026-04-27 08:31 -16.87613 145.75112 12 ft 23 kts 337°
2026-04-27 08:31 -16.87465 145.75045 14 ft 23 kts 336°
2026-04-27 08:32 -16.87367 145.74998 -4 ft 24 kts 331°
2026-04-27 08:32 -16.87230 145.74846 -7 ft 21 kts 337°
2026-04-27 08:32 -16.87162 145.74816 -6 ft 0 kts 336°
2026-04-27 08:33 -16.87161 145.74815 -6 ft 1 kts 336°
2026-04-27 08:33 -16.87141 145.74806 -6 ft 5 kts 336°
2026-04-27 08:34 -16.87101 145.74788 -6 ft 0 kts 336°
2026-04-27 08:37 -16.87089 145.74782 -7 ft 9 kts 336°
2026-04-27 08:38 -16.87052 145.74750 -8 ft 0 kts 300°
2026-04-27 08:42 -16.87047 145.74733 -12 ft 8 kts 279°
2026-04-27 08:43 -16.87056 145.74692 -10 ft 0 kts 246°
2026-04-27 08:46 -16.87060 145.74682 -11 ft 6 kts 246°
2026-04-27 08:46 -16.87110 145.74604 -9 ft 12 kts 203°
2026-04-27 08:46 -16.87161 145.74618 -9 ft 0 kts 156°
2026-04-27 08:47 -16.87184 145.74628 -8 ft 22 kts 156°
2026-04-27 08:47 -16.87577 145.74806 17 ft 98 kts 156°
2026-04-27 08:47 -16.88412 145.75183 16 ft 158 kts 156°
2026-04-27 08:47 -16.89409 145.75683 673 ft 153 kts 149°
2026-04-27 08:48 -16.90026 145.76551 1530 ft 154 kts 108°
2026-04-27 08:48 -16.90069 145.77693 2128 ft 172 kts 83°
2026-04-27 08:48 -16.89457 145.78880 2523 ft 201 kts 50°
2026-04-27 08:48 -16.88307 145.79802 2933 ft 213 kts 41°
2026-04-27 08:49 -16.87095 145.80721 3451 ft 215 kts 41°
2026-04-27 08:49 -16.85901 145.81626 3988 ft 214 kts 43°
2026-04-27 08:49 -16.84890 145.82715 4513 ft 206 kts 65°
2026-04-27 08:49 -16.84533 145.84120 4810 ft 204 kts 101°
2026-04-27 08:50 -16.85226 145.85391 4952 ft 213 kts 142°
2026-04-27 08:50 -16.86572 145.86219 5108 ft 239 kts 152°
2026-04-27 08:50 -16.88073 145.87015 5638 ft 250 kts 152°
2026-04-27 08:50 -16.89624 145.87846 6385 ft 256 kts 151°
2026-04-27 08:51 -16.91215 145.88737 7082 ft 263 kts 150°
2026-04-27 08:51 -16.92829 145.89681 7775 ft 268 kts 149°
2026-04-27 08:51 -16.94460 145.90667 8572 ft 271 kts 149°
2026-04-27 08:51 -16.96094 145.91676 9316 ft 276 kts 148°
2026-04-27 08:52 -16.97736 145.92703 10034 ft 280 kts 148°
2026-04-27 08:52 -16.99455 145.93780 10416 ft 297 kts 149°
2026-04-27 08:52 -17.01316 145.94912 10601 ft 320 kts 155°
2026-04-27 08:52 -17.03513 145.95506 10978 ft 331 kts 174°
2026-04-27 08:53 -17.05805 145.95715 11547 ft 337 kts 177°
2026-04-27 08:53 -17.08151 145.95954 12179 ft 341 kts 174°
2026-04-27 08:53 -17.10438 145.96710 12755 ft 352 kts 155°
2026-04-27 08:53 -17.12556 145.98068 13336 ft 359 kts 151°
2026-04-27 08:54 -17.14663 145.99471 13890 ft 364 kts 151°
2026-04-27 08:54 -17.16803 146.00904 14388 ft 368 kts 151°
2026-04-27 08:54 -17.18979 146.02360 14930 ft 371 kts 151°
2026-04-27 08:54 -17.21182 146.03830 15468 ft 374 kts 151°
2026-04-27 08:55 -17.21898 146.04306 15647 ft 376 kts 151°
2026-04-27 08:55 -17.23640 146.05387 20653 ft 382 kts 154°
2026-04-27 08:56 -17.25945 146.06820 21001 ft 388 kts 151°
2026-04-27 08:56 -17.28231 146.08270 30821 ft 380 kts 154°